User: anonymous   Login
Location: Unspecified
(0.0000°N, 0.0000°E)
Time: 12:37:16
(UTC+00:00)
Language:

APRIZESAT 7 - Orbit

View from above orbital plane
View from above orbital plane
View from above satellite
View from above satellite

Ground track
Ground track

The orbit data is extracted from the following two-line orbital elements,

1 39416U 13066A   18172.18592391  .00000042  00000-0  11125-4 0  9996
2 39416  97.5830 210.1080 0042682 118.6287 241.9231 14.83809413247943
Epoch (UTC): 21 June 2018 04:27:43
Eccentricity: 0.0042682
inclination: 97.5830°
perigee height: 587 km
apogee height: 647 km
right ascension of ascending node: 210.1080°
argument of perigee: 118.6287°
revolutions per day: 14.83809413
mean anomaly at epoch: 241.9231°
orbit number at epoch: 24794

The dashed part of the orbit path shows where the satellite is in the earth's shadow,  

DLR